Theta_e
317 317 316 316 315 316 316 316 316 316 315 312 312 311 308 303 302 305 305 305 307 307 306 309 311 308 309 311 314 318 322 324 323 322 321 321 322 318 311 316 317 312 311 309 310
316 315 314 314 315 316 316 316 316 316 316 309 305 308 304 304 304 308 304 304 305 304 304 309 309 307 309 312 315 319 322 324 321 318 318 318 318 316 316 315 315 307 307 308 309
312 312 312 312 313 314 314 314 314 315 316 314 309 306 303 303 308 308 307 305 301 302 306 310 308 307 311 313 315 319 321 321 316 313 311 313 315 314 313 314 315 308 305 305 306
308 308 310 311 311 312 313 313 313 310 310 312 311 309 303 306 302 303 303 302 301 303 309 309 306 306 311 313 314 319 318 319 317 310 311 311 307 308 311 311 305 304 305 303 304
306 306 306 308 309 309 310 310 311 310 309 303 305 308 305 306 304 302 300 300 301 303 309 308 305 306 311 311 312 316 317 316 309 307 308 307 306 306 305 304 304 303 303 302 301
303 304 304 305 306 307 308 310 310 310 309 302 303 307 305 302 302 301 301 301 306 306 308 308 306 307 308 308 312 309 311 312 311 307 307 306 305 305 304 303 302 302 301 301 301
301 301 301 302 304 305 306 308 308 309 307 302 304 305 306 303 302 301 301 303 305 307 307 307 307 307 307 308 306 307 308 306 308 306 305 303 301 301 301 303 302 300 299 300 300
299 300 300 300 301 302 303 307 307 309 304 302 306 309 301 301 302 301 302 302 303 306 306 307 306 306 306 306 306 306 306 305 306 304 302 301 301 301 299 300 301 300 298 299 300
300 300 301 301 301 301 302 303 307 309 303 302 307 306 301 300 300 302 303 304 304 304 306 305 305 306 304 305 305 305 303 303 304 304 302 301 300 302 300 299 300 298 298 298 299
300 300 300 301 301 301 302 306 308 308 305 307 307 300 301 301 302 302 302 304 305 303 303 303 304 305 304 304 306 304 304 303 304 303 302 301 300 300 299 301 299 297 297 297 299
298 298 298 299 299 304 306 308 306 307 306 303 304 301 302 301 301 301 302 304 305 305 305 304 304 304 305 303 305 305 304 303 301 301 302 301 301 300 299 298 298 297 297 297 299
296 297 297 298 301 306 307 305 304 303 304 305 306 308 307 301 301 301 303 302 305 305 305 303 304 304 304 305 306 305 304 303 302 300 299 299 299 299 299 299 299 298 297 297 298
295 295 295 297 301 304 303 303 303 305 305 309 307 308 302 301 302 301 302 302 303 304 304 303 304 304 304 303 306 304 303 303 303 301 300 299 301 304 304 300 298 299 299 298 300
295 295 295 295 298 298 304 303 303 304 308 308 307 303 302 302 302 301 302 302 303 302 303 303 304 303 303 303 302 302 302 302 302 300 300 303 306 301 306 304 303 301 298 298 301
296 296 295 295 297 297 299 301 303 304 289 302 303 302 303 303 301 300 301 301 302 301 303 303 302 302 303 303 302 302 301 301 303 303 303 302 300 301 305 305 303 301 300 299 298
295 295 295 294 296 298 299 301 305 297 290 303 302 303 303 302 302 300 300 300 300 302 301 300 299 301 302 300 301 301 303 303 303 304 299 301 301 302 307 305 304 302 300 299 300
295 294 294 295 296 299 299 303 303 297 297 302 304 304 304 304 303 301 301 299 299 300 300 300 299 299 301 301 301 302 303 304 302 295 299 303 304 303 304 302 302 302 300 299 301
294 293 295 297 298 298 299 307 302 288 295 305 303 304 304 304 303 303 301 299 299 300 300 301 301 299 299 301 300 302 305 306 300 308 309 299 306 306 302 302 302 301 300 300 301
293 291 295 294 298 300 304 304 294 295 300 308 303 299 295 303 303 303 302 301 301 300 301 302 302 298 299 301 302 302 302 302 300 293 298 303 302 303 302 302 300 301 301 301 300
293 292 296 292 296 300 302 298 295 306 305 304 308 297 291 295 301 302 302 302 303 301 303 308 306 298 299 300 300 300 299 302 300 297 300 306 308 306 301 301 299 299 300 300 300
292 289 294 293 295 298 300 293 300 303 303 305 305 303 307 303 300 299 302 304 302 302 302 306 309 301 299 298 299 299 304 302 304 306 303 306 311 304 304 301 300 298 297 298 299
291 284 291 293 288 290 296 297 299 300 300 302 305 305 308 307 302 305 304 308 301 302 302 303 307 309 301 299 298 299 301 303 310 308 301 303 307 302 300 302 300 298 298 297 299
285 287 292 294 283 280 288 295 294 295 293 297 301 304 305 305 306 302 305 302 300 301 302 300 301 302 305 299 297 297 298 301 304 302 303 301 305 301 300 300 299 298 297 298 298
289 288 284 289 287 290 288 288 291 291 292 294 294 298 295 299 302 307 307 303 301 300 301 303 303 302 307 304 298 297 298 299 302 296 300 303 300 306 302 300 299 298 297 297 296
291 289 284 281 282 287 289 291 291 287 293 292 293 292 291 296 296 299 299 300 302 301 300 303 305 302 302 303 300 300 298 299 300 299 300 300 302 304 303 303 298 295 296 295 296
290 291 288 281 287 289 289 285 290 288 291 292 291 291 293 292 292 293 293 295 299 297 298 299 304 302 297 302 306 308 305 298 299 299 300 298 298 298 302 304 300 298 295 298 297
291 291 291 291 289 290 289 288 289 289 289 290 289 290 291 292 292 292 292 293 293 294 300 299 299 298 298 302 304 305 304 304 302 295 298 298 300 300 301 300 301 298 297 297 296
Wind_Speed
14 14 17 17 20 21 21 21 21 22 20 17 16 15 13 12 12 4 5 6 8 11 5 4 5 6 4 3 4 3 2 4 5 7 7 3 3 4 4 6 3 4 4 8 26
12 14 15 17 17 18 19 20 22 22 22 21 17 14 11 11 11 8 10 9 7 7 4 5 4 5 1 5 3 5 5 7 5 3 1 1 5 2 2 3 3 5 6 19 22
18 19 18 19 19 19 21 22 21 22 22 23 18 12 9 9 4 4 7 12 7 6 8 4 8 5 4 2 5 5 5 9 3 1 3 2 2 1 4 3 5 9 11 9 10
20 21 22 22 21 21 22 22 24 29 33 24 15 10 6 2 4 3 6 7 7 6 5 3 3 4 6 6 7 3 6 12 4 0 1 2 5 4 4 6 5 4 14 9 9
22 23 23 24 24 24 24 24 25 28 35 23 11 5 1 2 7 3 4 4 6 8 7 3 3 4 4 5 6 10 7 5 5 4 1 2 3 4 6 9 4 9 9 9 9
23 24 25 26 26 26 27 24 25 28 31 16 8 4 2 3 4 2 2 5 6 10 7 6 3 5 5 4 7 1 3 7 4 6 3 3 4 1 7 12 8 8 10 9 9
23 25 27 27 27 28 28 27 26 26 22 14 6 7 2 9 3 1 4 5 6 7 2 6 1 1 3 3 2 2 2 6 4 5 1 5 8 13 12 6 9 11 9 9 10
25 25 27 29 29 29 29 26 25 24 13 7 4 5 5 4 4 3 4 3 5 7 2 1 0 1 2 3 3 3 2 1 4 10 4 7 10 8 8 11 9 9 9 9 9
25 27 29 30 32 32 32 23 20 14 5 3 5 3 6 1 3 7 6 3 7 3 2 3 2 2 2 2 2 2 4 7 5 9 6 7 7 4 5 8 9 8 8 8 8
27 28 31 33 35 36 30 16 11 3 1 2 7 2 3 3 5 4 7 10 3 3 2 2 2 2 1 4 5 6 4 5 6 7 4 6 14 10 8 4 10 9 9 9 9
29 30 33 36 40 27 20 5 5 2 2 6 4 4 5 5 6 5 5 5 4 2 4 3 3 10 10 6 6 1 3 3 1 2 4 9 12 15 8 8 10 9 9 10 10
28 30 33 37 31 18 12 4 6 3 9 11 18 14 10 9 3 5 9 6 5 5 4 3 10 7 8 9 10 11 4 5 0 2 2 2 13 13 9 11 15 14 10 11 8
29 30 33 34 20 15 10 14 12 11 4 6 4 1 4 7 4 7 10 5 5 6 7 6 4 2 10 5 7 7 6 4 5 3 4 3 9 6 6 11 7 13 12 10 15
30 32 33 33 6 23 3 22 16 9 4 5 2 3 3 3 2 1 14 4 4 9 6 7 5 5 3 5 6 5 3 5 4 3 4 3 5 6 4 6 6 8 10 11 13
31 33 32 19 15 10 15 24 16 2 5 3 2 2 1 3 2 2 1 2 3 4 4 5 5 4 4 4 5 5 2 4 2 2 3 2 2 8 3 7 9 9 9 9 11
32 34 30 15 15 5 20 21 2 5 6 4 2 2 3 1 2 1 0 1 2 1 1 0 1 2 3 3 2 6 5 5 4 3 1 8 7 5 5 6 3 5 8 9 11
33 36 23 16 8 20 18 7 4 4 5 5 2 4 4 6 5 6 5 5 6 4 5 1 3 2 2 4 6 1 5 2 3 2 6 4 4 9 6 6 7 11 9 9 11
31 32 15 11 13 16 7 1 3 5 7 5 3 3 5 5 5 8 5 4 7 1 2 7 5 9 6 5 7 6 4 5 7 4 4 4 6 6 5 4 5 10 10 9 9
29 30 10 20 16 8 1 2 7 7 3 3 5 1 5 3 4 5 8 6 9 15 8 5 4 2 3 2 2 6 4 3 5 1 3 4 7 8 3 3 6 9 9 10 10
22 15 5 22 18 3 0 4 4 3 3 4 2 4 3 4 2 5 6 6 6 13 5 5 1 1 2 0 1 2 1 2 2 2 4 4 5 6 7 9 8 9 10 9 9
9 4 4 22 10 2 3 5 4 7 12 7 3 5 5 3 5 3 5 6 8 4 15 5 4 1 2 7 8 2 2 1 2 4 5 2 6 6 7 13 14 11 9 10 10
4 2 14 15 4 1 2 5 16 11 16 5 5 6 8 5 4 5 6 5 2 7 8 5 5 5 8 1 2 4 6 6 4 6 4 3 7 2 5 10 13 10 9 7 7
0 3 4 2 1 2 6 6 9 8 10 9 8 7 5 4 7 7 5 3 5 4 9 7 2 2 5 3 1 6 6 4 3 3 8 4 6 3 5 5 6 10 8 8 7
2 3 4 3 1 4 1 3 4 5 7 7 12 9 15 10 9 7 4 1 5 4 3 2 4 7 8 4 5 5 7 13 8 6 6 14 6 5 4 3 5 8 9 9 8
3 4 4 3 4 2 2 3 8 4 4 2 5 9 11 6 11 5 8 10 5 6 3 3 5 5 7 5 4 5 5 11 18 16 12 8 17 15 6 8 8 7 6 6 8
2 2 2 3 2 5 6 5 10 5 5 4 4 16 3 6 10 6 12 5 9 2 6 2 3 3 3 5 6 11 14 10 17 17 17 12 11 9 6 4 4 9 9 8 9
8 8 3 7 5 6 9 8 8 2 6 10 9 9 15 14 13 15 15 16 19 14 5 6 7 4 5 3 5 7 21 22 18 7 12 17 18 8 8 10 12 8 9 12 10
Wind_Direction
359 2 355 356 349 352 352 350 349 346 341 336 330 324 322 322 315 285 235 225 207 238 259 221 211 233 249 242 223 169 214 221 231 242 255 263 106 356 140 126 66 34 134 160 151
354 354 345 346 345 345 346 345 341 340 336 337 330 323 322 322 310 243 247 226 224 243 222 198 215 203 206 201 240 173 198 227 230 236 357 334 92 148 84 141 120 71 77 131 149
359 358 350 349 346 346 345 345 347 338 330 327 321 314 320 326 295 218 188 220 231 228 202 258 253 192 215 216 219 201 206 233 325 131 35 360 29 87 133 253 211 179 170 162 162
358 360 357 350 344 341 339 338 337 346 339 324 312 302 314 299 289 192 180 200 220 192 196 245 235 192 189 215 216 230 230 243 231 130 98 80 320 348 191 215 152 136 176 160 166
357 347 350 347 343 338 333 332 334 337 339 327 309 286 288 229 257 191 208 211 193 182 201 217 213 187 187 205 238 223 242 250 116 146 141 15 282 248 261 259 209 121 140 168 168
352 347 343 341 337 333 328 325 329 329 335 327 311 180 166 237 173 212 202 171 175 182 192 218 228 229 281 216 204 11 220 257 227 164 164 165 267 64 249 238 194 171 168 172 180
351 348 344 338 331 327 319 317 322 322 327 317 283 164 231 244 234 257 171 168 192 198 224 229 14 347 298 287 303 97 354 337 234 173 131 95 282 236 220 210 210 192 194 190 199
352 349 346 343 338 329 317 303 315 320 315 313 165 160 242 189 182 213 180 166 179 206 219 149 161 257 71 295 15 128 75 220 248 162 181 122 264 278 239 183 203 190 196 201 214
348 347 343 339 334 329 322 303 307 317 297 157 153 189 272 186 179 192 181 178 135 175 188 123 94 166 47 94 8 290 201 211 292 180 137 181 265 279 90 164 205 215 215 206 202
353 349 345 342 335 327 320 314 320 261 187 196 280 357 245 209 158 167 183 161 142 133 81 103 100 139 145 143 211 200 222 243 203 210 145 198 257 271 281 249 214 215 215 197 183
345 343 341 338 336 339 337 7 12 26 311 213 198 256 144 145 149 181 169 171 136 182 166 202 157 210 196 203 249 56 208 308 149 321 151 228 261 260 253 236 227 222 204 194 185
343 341 339 338 343 1 22 46 33 304 301 249 252 256 242 173 129 192 165 161 177 186 163 108 238 220 209 210 227 260 269 262 202 194 188 253 268 265 244 241 218 203 207 194 170
353 350 344 337 346 17 43 32 350 349 267 293 237 201 168 149 213 206 159 180 186 190 197 166 212 186 198 208 196 226 205 216 237 187 251 14 289 271 269 236 206 202 199 188 173
348 348 344 340 7 339 75 343 347 338 327 276 353 15 76 107 267 58 190 177 226 208 196 228 224 156 187 219 156 223 237 173 166 103 228 136 272 297 249 244 211 179 185 194 166
344 345 344 343 312 326 325 323 330 277 20 289 92 319 165 163 132 14 91 33 208 216 152 234 157 158 169 202 181 219 127 136 128 154 53 237 76 266 253 249 228 213 198 199 171
342 343 345 359 338 282 317 322 321 44 266 308 123 145 118 251 184 130 93 357 248 270 8 144 270 160 160 58 337 143 72 44 45 74 344 226 170 272 211 221 233 187 202 187 161
341 340 344 333 307 332 323 325 58 134 329 294 260 169 216 193 197 166 167 189 183 145 224 299 216 143 136 86 3 63 106 17 352 359 219 325 158 247 250 236 209 179 179 166 153
340 339 0 12 338 319 329 111 132 236 247 317 297 240 225 163 227 183 164 224 241 222 127 180 275 169 181 202 181 188 180 167 200 203 248 360 229 246 228 221 175 151 154 151 154
341 346 359 11 351 340 319 186 205 213 232 298 338 98 297 288 209 156 205 210 202 184 185 188 249 15 43 70 134 187 205 190 100 48 64 219 275 290 192 111 109 150 156 173 171
341 330 321 360 354 339 129 243 234 260 19 12 287 158 238 276 252 187 202 225 213 181 206 182 45 320 279 53 64 184 203 101 3 180 253 274 271 239 210 201 181 164 181 185 180
342 356 290 337 343 14 231 231 306 319 12 348 306 287 248 271 206 251 243 286 189 172 177 156 125 196 122 203 184 138 215 221 153 169 182 188 254 225 223 194 190 197 191 191 181
354 351 316 338 42 293 282 312 356 2 343 296 259 275 252 228 247 231 240 243 84 137 171 193 154 204 205 197 210 201 207 185 160 236 219 176 261 340 305 202 180 188 197 200 182
283 247 296 332 88 307 322 326 318 21 339 335 310 333 343 320 303 215 222 328 321 168 167 183 224 79 328 351 293 215 196 186 117 98 221 185 259 330 346 76 158 164 185 184 173
358 321 317 31 166 147 98 266 321 311 320 347 306 295 357 329 265 277 260 178 332 325 295 200 160 171 194 166 133 199 208 198 181 200 203 229 284 278 237 163 139 164 172 177 183
197 238 201 266 299 194 124 247 282 287 235 351 314 338 338 297 306 279 348 331 245 232 236 185 213 188 241 198 172 202 208 205 213 217 205 218 218 247 211 208 206 198 191 185 200
233 215 280 233 218 223 239 229 253 249 216 246 220 292 272 292 310 317 333 349 301 295 187 169 217 195 287 211 204 248 242 225 224 232 245 265 270 237 247 229 209 217 192 212 222
226 247 223 241 238 223 215 219 243 133 272 252 258 274 281 280 270 277 272 266 255 270 269 188 158 142 254 237 123 277 236 220 225 200 203 226 237 244 262 208 218 217 211 223 228